TimeEDT,TemperatureF,Dew PointF,Humidity,Sea Level PressureIn,VisibilityMPH,Wind Direction,Wind SpeedMPH,Gust SpeedMPH,PrecipitationIn,Events,Conditions,WindDirDegrees,DateUTC
12:54 AM,57.0,44.1,62,30.03,10.0,Calm,Calm,-,N/A,,Partly Cloudy,0,2012-10-07 04:54:00
1:54 AM,55.0,44.1,67,30.04,10.0,Calm,Calm,-,N/A,,Clear,0,2012-10-07 05:54:00
3:54 AM,53.1,42.1,66,30.04,10.0,North,6.9,-,N/A,,Scattered Clouds,350,2012-10-07 07:54:00
4:54 AM,53.1,42.1,66,30.06,10.0,NNW,4.6,-,N/A,,Mostly Cloudy,330,2012-10-07 08:54:00
5:54 AM,55.0,41.0,59,30.07,10.0,North,5.8,-,N/A,,Overcast,350,2012-10-07 09:54:00
6:54 AM,55.0,44.1,67,30.07,10.0,NE,6.9,-,0.01,Rain,Light Rain,40,2012-10-07 10:54:00
7:54 AM,53.1,48.0,83,30.10,10.0,Calm,Calm,-,0.03,,Overcast,0,2012-10-07 11:54:00
8:54 AM,54.0,48.0,80,30.10,10.0,East,3.5,-,0.01,Rain,Light Rain,80,2012-10-07 12:54:00
9:54 AM,54.0,48.9,83,30.11,10.0,North,4.6,-,0.01,,Overcast,350,2012-10-07 13:54:00
10:54 AM,54.0,48.0,80,30.12,6.0,North,4.6,-,0.01,Rain,Rain,360,2012-10-07 14:54:00
11:49 AM,53.6,48.2,82,30.10,2.0,NE,4.6,-,0.10,Rain,Heavy Rain,50,2012-10-07 15:49:00
11:54 AM,53.1,48.0,83,30.10,2.5,NE,5.8,-,0.12,Rain,Heavy Rain,50,2012-10-07 15:54:00
12:19 PM,53.6,48.2,82,30.10,5.0,NNE,3.5,-,0.06,Rain,Light Rain,30,2012-10-07 16:19:00
12:54 PM,53.1,48.9,86,30.09,10.0,North,4.6,-,0.07,Rain,Light Rain,360,2012-10-07 16:54:00
1:54 PM,54.0,50.0,86,30.07,10.0,North,4.6,-,0.00,,Overcast,350,2012-10-07 17:54:00
2:09 PM,53.6,48.2,82,30.07,10.0,North,6.9,-,N/A,,Overcast,10,2012-10-07 18:09:00
2:26 PM,53.6,48.2,82,30.05,10.0,NNE,5.8,-,N/A,,Overcast,20,2012-10-07 18:26:00
2:54 PM,55.0,48.0,77,30.04,10.0,North,5.8,-,N/A,,Overcast,10,2012-10-07 18:54:00
3:24 PM,53.6,46.4,77,30.05,10.0,North,6.9,-,N/A,,Overcast,350,2012-10-07 19:24:00
3:54 PM,55.0,46.9,74,30.04,10.0,North,4.6,-,N/A,,Overcast,10,2012-10-07 19:54:00
4:50 PM,55.4,44.6,67,30.02,10.0,NNE,5.8,-,N/A,,Overcast,20,2012-10-07 20:50:00
4:54 PM,55.0,45.0,69,30.01,10.0,NNE,5.8,-,N/A,,Overcast,30,2012-10-07 20:54:00
5:54 PM,54.0,46.9,77,30.04,10.0,NW,4.6,-,0.00,,Overcast,310,2012-10-07 21:54:00
6:54 PM,53.1,48.0,83,30.08,8.0,Variable,5.8,-,N/A,,Overcast,0,2012-10-07 22:54:00
7:42 PM,51.8,46.4,82,30.10,10.0,NW,4.6,-,0.01,,Overcast,320,2012-10-07 23:42:00
8:22 PM,50.0,46.4,87,30.12,3.0,Variable,4.6,-,0.02,Rain,Light Rain,0,2012-10-08 00:22:00
8:36 PM,48.2,46.4,93,30.13,6.0,NW,5.8,-,0.02,Rain,Light Rain,310,2012-10-08 00:36:00
8:54 PM,48.9,46.0,90,30.14,8.0,NW,4.6,-,0.02,,Overcast,320,2012-10-08 00:54:00
9:03 PM,48.2,46.4,93,30.15,9.0,Variable,3.5,-,N/A,,Overcast,0,2012-10-08 01:03:00
9:54 PM,50.0,46.9,89,30.15,8.0,NW,4.6,-,0.01,Rain,Light Rain,320,2012-10-08 01:54:00
10:45 PM,50.0,46.4,87,30.15,10.0,Calm,Calm,-,0.00,,Overcast,0,2012-10-08 02:45:00
10:54 PM,50.0,46.9,89,30.15,10.0,NNW,3.5,-,0.00,,Overcast,340,2012-10-08 02:54:00
11:54 PM,50.0,46.9,89,30.15,10.0,Calm,Calm,-,N/A,,Mostly Cloudy,0,2012-10-08 03:54:00